User: anonymous   Login
Location: Bothwell
(42.3833°S, 147.0000°E)
Time: 16:59:09
(UTC+10:00)
Language:

ESTCUBE 1 - Orbit

View from above orbital plane
View from above orbital plane
View from above satellite
View from above satellite

Ground track
Ground track

The orbit data is extracted from the following two-line orbital elements,

1 39161U 13021C   24198.14289166  .00003164  00000-0  45995-3 0  9997
2 39161  97.8272 263.7265 0010152 131.7603 228.4476 14.76591608601409
Epoch (UTC): 16 July 2024 03:25:45
Eccentricity: 0.0010152
inclination: 97.8272°
perigee height: 633 km
apogee height: 647 km
right ascension of ascending node: 263.7265°
argument of perigee: 131.7603°
revolutions per day: 14.76591608
mean anomaly at epoch: 228.4476°
orbit number at epoch: 60140

The dashed part of the orbit path shows where the satellite is in the earth's shadow,  

DLR